STARLINK-31747, 59564

Orbit data source: Space-Track

STARLINK-31747, 59564 is a payload satellite owned by SpaceX/Seattle (US) in LEO that was launched on Tue, 23 Apr 2024 UTC via an FALCON 9 launch vehicle from the Air Force Eastern Test Range (AFETR). Payload-class satellites include a variety of spacecraft equipped with specific instruments for various scientific and technological missions. These include communications satellites like Starlink; space stations such as the ISS; scientific satellites like the Hubble; Earth observation satellites from companies like Planet Labs, Umbra, and HawkEye 360; GPS; miniature CubeSats for education and research; and military/defense satellites.

Loading next visibility...
Identifier
59564, 2024-076A
Orbit
LEO
Country
Flag of USUS
Related business
Manufacturer
SpaceX/Seattle
Mission
Operational Commercial Communications
Bus & Motor
STARLINK V2M, Unknown motor
Mass
730 kg wet, ~700 kg dry
Launch date (UTC)
2024-04-23 (2 years ago)
Launch vehicle
FALCON 9
Launch site
Air Force Eastern Test Range (AFETR)
Object type
Payload
Rocket body
Debris
Shape & HBR
Box + 2 Pan, 17.7 m
Radar Cross Section
33.884 m², Large (>1 m²)

Expand to show TLE details & history
Last TLE update: 16 hours ago

TLE from 16 hours ago
0 STARLINK-31747
1 59564U 24076A   25302.90754449 -.00001679  00000-0 -51503-4 0  9995
2 59564  43.0023  17.0059 0001014 285.0473  75.0267 15.27581033 86613
Epoch: 2025-10-29T21:46Z
TLE epoch observation values (Epoch: 2025-10-29T21:46:51.843Z)
Latitude
Longitude
11.81594°
Altitude
482.642 km
Speed
7.626 km/s
True Right ascension
01h 08m 01s
True Declination
0° 00' 00"
Sunlit
Object was in full shadow at epoch
Visualization orbit readout
Latitude
Unknown
Longitude
Unknown
Altitude
Unknown
Speed
Unknown
Apparent Right ascension
Unknown
Apparent Declination
Unknown
Sunlit
N/A
Visualization observer readout
Local Sidereal Time
09:11:36
Azimuth
Unknown
Elevation
Unknown
Doppler factor
Unknown
Orbital elements
Apogee altitude
485.687 km
Perigee altitude
484.295 km
Semi-major axis
6,863.128 km
Eccentricity
0.0001
Inclination
43.0023°
RAAN
17.0059°
Arg. of periapsis
285.0473°
True anomaly
75.03793°
Mean anomaly
75.0267°
Eccentric anomaly
75.03231°
Mean motion
3.81733 °/min
Orbital period
94.31 mins
BSTAR
-0.000051503
Loading maneuver chart data...
Computing Atmospheric mass density...
Loading historical data...
Loading historical data...
Loading historical data...
Loading historical data...
Loading historical data...
Loading historical data...
Loading historical data...

Documentation

Showing up to 5 results
|